Location: Alpine
(43.1636°N, 111.0180°W)
Time: 04:05:21
(UTC+00:00)

Tiros 1 despin weight - Pass Details

Date: 03 June 2022
Orbit: 591 x 639 km, 48.2° (Epoch: 30 June)

Event Time Altitude Azimuth Distance (km) Brightness Sun altitude
Rises 20:56:25 0° 200° (SSW) 2,910 ? 61.5°
Reaches altitude 10° 20:59:13 10° 184° (S) 1,999 ? 61.1°
Maximum altitude 21:02:35 20° 137° (SE) 1,430 ? 60.6°
Drops below altitude 10° 21:05:58 10° 89° (E) 1,986 ? 60.1°
Sets 21:08:43 0° 73° (ENE) 2,886 ? 59.7°
